• In Italy
  • List of Countries
  • For 7 days
  • Water Temperature
  • Satellite Maps
  • Weather Map
  • Weather Widgets
  • user-avatar
    Login

    Hourly Weather Djelfa

    Today, 22 November, Wednesday

    Time Temperature Precipitation Wind Pressure Humidity
    00:00 +7°C° 0 mm 2 mps 666 mmHg 31%
    01:00 +6°C° 0 mm 2 mps 665 mmHg 32%
    02:00 +6°C° 0 mm 2 mps 665 mmHg 34%
    03:00 +6°C° 0 mm 2 mps 665 mmHg 35%
    04:00 +6°C° 0 mm 2 mps 665 mmHg 35%
    05:00 +7°C° 0 mm 1 mps 665 mmHg 35%
    06:00 +7°C° 0 mm 1 mps 665 mmHg 35%
    07:00 +7°C° 0 mm 2 mps 665 mmHg 33%
    08:00 +8°C° 0 mm 2 mps 665 mmHg 31%
    09:00 +9°C° 0 mm 2 mps 666 mmHg 29%
    10:00 +10°C° 0 mm 2 mps 666 mmHg 28%
    11:00 +11°C° 0 mm 3 mps 666 mmHg 27%
    12:00 +12°C° 0 mm 3 mps 666 mmHg 25%
    13:00 +12°C° 0 mm 3 mps 665 mmHg 25%
    14:00 +12°C° 0 mm 3 mps 665 mmHg 25%
    15:00 +12°C° 0 mm 3 mps 665 mmHg 25%
    16:00 +11°C° 0 mm 3 mps 665 mmHg 28%
    17:00 +11°C° 0 mm 3 mps 664 mmHg 31%
    18:00 +10°C° 0 mm 3 mps 664 mmHg 34%
    19:00 +9°C° 0 mm 3 mps 665 mmHg 36%
    20:00 +9°C° 0 mm 3 mps 665 mmHg 38%
    21:00 +9°C° 0 mm 3 mps 665 mmHg 39%
    22:00 +8°C° 0 mm 3 mps 665 mmHg 42%
    23:00 +8°C° 0 mm 2 mps 664 mmHg 44%

    Tomorrow, 23 November, Thursday

    Time Temperature Precipitation Wind Pressure Humidity
    00:00 +7°C° 0 mm 2 mps 664 mmHg 46%
    01:00 +7°C° 0 mm 2 mps 664 mmHg 47%
    02:00 +7°C° 0 mm 2 mps 664 mmHg 47%
    03:00 +7°C° 0 mm 2 mps 664 mmHg 47%
    04:00 +6°C° 0 mm 2 mps 664 mmHg 47%
    05:00 +6°C° 0 mm 2 mps 664 mmHg 46%
    06:00 +6°C° 0 mm 2 mps 664 mmHg 46%
    07:00 +7°C° 0 mm 2 mps 665 mmHg 41%
    08:00 +8°C° 0 mm 2 mps 665 mmHg 37%
    09:00 +10°C° 0 mm 3 mps 666 mmHg 32%
    10:00 +11°C° 0 mm 3 mps 666 mmHg 29%
    11:00 +12°C° 0 mm 3 mps 666 mmHg 26%
    12:00 +13°C° 0 mm 3 mps 666 mmHg 23%
    13:00 +14°C° 0 mm 3 mps 666 mmHg 23%
    14:00 +14°C° 0 mm 3 mps 666 mmHg 23%
    15:00 +14°C° 0 mm 4 mps 666 mmHg 22%
    16:00 +12°C° 0 mm 3 mps 666 mmHg 26%
    17:00 +12°C° 0 mm 2 mps 666 mmHg 29%
    18:00 +10°C° 0 mm 2 mps 666 mmHg 32%
    19:00 +9°C° 0 mm 2 mps 666 mmHg 34%
    20:00 +9°C° 0 mm 1 mps 666 mmHg 35%
    21:00 +9°C° 0 mm 1 mps 666 mmHg 37%
    22:00 +8°C° 0 mm 1 mps 666 mmHg 37%
    23:00 +8°C° 0 mm 1 mps 666 mmHg 38%

    Day after tomorrow, 24 November, Friday

    Time Temperature Precipitation Wind Pressure Humidity
    00:00 +7°C° 0 mm 1 mps 666 mmHg 38%
    01:00 +7°C° 0 mm 1 mps 665 mmHg 39%
    02:00 +7°C° 0 mm 1 mps 665 mmHg 40%
    03:00 +6°C° 0 mm 1 mps 665 mmHg 41%
    04:00 +6°C° 0 mm 1 mps 665 mmHg 42%
    05:00 +6°C° 0 mm 1 mps 665 mmHg 43%
    06:00 +5°C° 0 mm 1 mps 665 mmHg 44%
    07:00 +8°C° 0 mm 1 mps 666 mmHg 39%
    08:00 +10°C° 0 mm 1 mps 667 mmHg 34%
    09:00 +12°C° 0 mm 1 mps 668 mmHg 29%
    10:00 +13°C° 0 mm 1 mps 668 mmHg 27%
    11:00 +14°C° 0 mm 1 mps 668 mmHg 25%
    12:00 +15°C° 0 mm 1 mps 668 mmHg 23%
    13:00 +16°C° 0 mm 1 mps 668 mmHg 22%
    14:00 +16°C° 0 mm 1 mps 668 mmHg 21%
    15:00 +16°C° 0 mm 1 mps 668 mmHg 20%
    16:00 +14°C° 0 mm 1 mps 668 mmHg 23%
    17:00 +13°C° 0 mm 1 mps 667 mmHg 26%
    18:00 +11°C° 0 mm 1 mps 667 mmHg 30%
    19:00 +11°C° 0 mm 1 mps 667 mmHg 31%
    20:00 +10°C° 0 mm 1 mps 667 mmHg 33%
    21:00 +10°C° 0 mm 1 mps 667 mmHg 34%
    22:00 +8°C° 0 mm 2 mps 667 mmHg 35%
    23:00 +8°C° 0 mm 2 mps 667 mmHg 37%

    25 November, Saturday

    Time Temperature Precipitation Wind Pressure Humidity
    00:00 +8°C° 0 mm 2 mps 667 mmHg 38%
    01:00 +7°C° 0 mm 2 mps 667 mmHg 39%
    02:00 +7°C° 0 mm 2 mps 667 mmHg 39%
    03:00 +7°C° 0 mm 2 mps 666 mmHg 40%
    04:00 +6°C° 0 mm 2 mps 666 mmHg 39%
    05:00 +6°C° 0 mm 2 mps 666 mmHg 38%
    06:00 +6°C° 0 mm 2 mps 666 mmHg 37%
    07:00 +8°C° 0 mm 2 mps 667 mmHg 32%
    08:00 +10°C° 0 mm 2 mps 668 mmHg 27%
    09:00 +13°C° 0 mm 2 mps 669 mmHg 21%
    10:00 +14°C° 0 mm 2 mps 669 mmHg 19%
    11:00 +15°C° 0 mm 2 mps 669 mmHg 16%
    12:00 +17°C° 0 mm 3 mps 669 mmHg 13%
    13:00 +17°C° 0 mm 2 mps 668 mmHg 13%
    14:00 +17°C° 0 mm 2 mps 668 mmHg 13%
    15:00 +17°C° 0 mm 2 mps 668 mmHg 12%
    16:00 +15°C° 0 mm 1 mps 668 mmHg 15%
    17:00 +13°C° 0 mm 1 mps 667 mmHg 18%
    18:00 +12°C° 0 mm 1 mps 667 mmHg 21%
    19:00 +11°C° 0 mm 1 mps 667 mmHg 22%
    20:00 +11°C° 0 mm 1 mps 667 mmHg 22%
    21:00 +10°C° 0 mm 1 mps 668 mmHg 23%
    22:00 +10°C° 0 mm 1 mps 667 mmHg 23%
    23:00 +9°C° 0 mm 1 mps 667 mmHg 24%

    26 November, Sunday

    Time Temperature Precipitation Wind Pressure Humidity
    00:00 +9°C° 0 mm 1 mps 667 mmHg 24%
    01:00 +9°C° 0 mm 1 mps 667 mmHg 25%
    02:00 +9°C° 0 mm 1 mps 666 mmHg 25%
    03:00 +9°C° 0 mm 1 mps 666 mmHg 25%
    04:00 +9°C° 0 mm 1 mps 666 mmHg 26%
    05:00 +9°C° 0 mm 1 mps 666 mmHg 26%
    06:00 +9°C° 0 mm 1 mps 666 mmHg 26%
    07:00 +10°C° 0 mm 1 mps 667 mmHg 24%
    08:00 +12°C° 0 mm 1 mps 668 mmHg 22%
    09:00 +14°C° 0 mm 1 mps 669 mmHg 19%
    10:00 +15°C° 0 mm 2 mps 669 mmHg 18%
    11:00 +16°C° 0 mm 2 mps 669 mmHg 17%
    12:00 +17°C° 0 mm 2 mps 669 mmHg 16%
    13:00 +17°C° 0 mm 3 mps 669 mmHg 16%
    14:00 +18°C° 0 mm 3 mps 668 mmHg 17%
    15:00 +18°C° 0 mm 3 mps 668 mmHg 17%
    16:00 +16°C° 0 mm 3 mps 668 mmHg 20%
    17:00 +14°C° 0 mm 2 mps 668 mmHg 23%
    18:00 +12°C° 0 mm 2 mps 668 mmHg 27%
    19:00 +12°C° 0 mm 2 mps 668 mmHg 28%
    20:00 +11°C° 0 mm 1 mps 668 mmHg 29%
    21:00 +10°C° 0 mm 1 mps 668 mmHg 31%
    22:00 +10°C° 0 mm 1 mps 668 mmHg 31%
    23:00 +10°C° 0 mm 1 mps 668 mmHg 32%

    27 November, Monday

    Time Temperature Precipitation Wind Pressure Humidity
    00:00 +9°C° 0 mm 2 mps 668 mmHg 32%
    01:00 +8°C° 0 mm 2 mps 668 mmHg 35%
    02:00 +8°C° 0 mm 2 mps 668 mmHg 37%
    03:00 +7°C° 0 mm 2 mps 668 mmHg 39%
    04:00 +8°C° 0 mm 1 mps 668 mmHg 42%
    05:00 +8°C° 0 mm 1 mps 668 mmHg 45%
    06:00 +7°C° 0 mm 1 mps 668 mmHg 48%
    07:00 +9°C° 0 mm 1 mps 668 mmHg 46%
    08:00 +10°C° 0 mm 1 mps 669 mmHg 43%
    09:00 +12°C° 0 mm 1 mps 670 mmHg 41%
    10:00 +13°C° 0 mm 1 mps 670 mmHg 39%
    11:00 +14°C° 0 mm 1 mps 670 mmHg 37%
    12:00 +15°C° 0 mm 1 mps 670 mmHg 35%
    13:00 +15°C° 0 mm 1 mps 670 mmHg 34%
    14:00 +16°C° 0 mm 2 mps 669 mmHg 33%
    15:00 +16°C° 0 mm 2 mps 669 mmHg 32%
    16:00 +15°C° 0 mm 2 mps 669 mmHg 35%
    17:00 +13°C° 0 mm 2 mps 668 mmHg 39%
    18:00 +12°C° 0 mm 2 mps 668 mmHg 42%
    19:00 +12°C° 0 mm 2 mps 668 mmHg 43%
    20:00 +10°C° 0 mm 2 mps 668 mmHg 44%
    21:00 +10°C° 0 mm 3 mps 668 mmHg 45%
    22:00 +9°C° 0 mm 3 mps 667 mmHg 46%
    23:00 +9°C° 0 mm 3 mps 667 mmHg 46%
    Show more